Flag for Australia Weather past 2 weeks in Canberra, Australian Capital Territory, Australia

Now
52 °F

Overcast.


Feels Like: 49 °F
Forecast: 45 / 76 °F
Wind: 7 mph from East

Location: Canberra Airport

Current Time: Oct 22, 2014 at 1:09:41 AM

Latest Report: Oct 22, 2014 at 12:30 AM


Visibility: N/A

Pressure: 30.39 "Hg

Humidity: 77%

Dew point: 45 °F

Location of CanberraLocation

Historic Weather in Canberra — Graph

°F

Canberra temperature yesterday

Maximum temperature yesterday: 63 °F (at 4:00 PM)
Minimum temperature yesterday: 50 °F (at 12:00 AM)
Average temperature yesterday: 54 °F

Past Weeks' High & Low Weather Summary

 TemperatureHumidityPressure
High81 °F (Oct 12, 3:00 PM)100% (Oct 9, 5:00 AM)30.48 "Hg (Oct 9, 5:00 AM)
Low32 °F (Oct 16, 6:30 AM)18% (Oct 11, 3:30 PM)29.65 "Hg (Oct 7, 4:56 AM)
Average54 °F68%30.09 "Hg
* Reported Midnight between Oct 6 and Oct 7 — Midnight between Oct 21 and Oct 22, Canberra, Weather by CustomWeather, © 2014

Note: Actual official high and low records may vary slightly from our data, if they occured in-between our weather recording intervals... More about our weather records

Advertising

Canberra weather history for previous 24 hours

 ConditionsComfort  
Time TempWeatherWind HumidityBarometerVisibility
12:00 AM
Oct 22
52 °FOvercast.10 mph82%30.42 "HgN/A
11:30 PM
Oct 21
52 °FOvercast.12 mph82%30.42 "HgN/A
11:00 PM52 °FOvercast.14 mph82%30.42 "HgN/A
10:30 PM54 °FOvercast.13 mph77%30.42 "HgN/A
10:00 PM54 °FOvercast.14 mph77%30.42 "HgN/A
9:30 PM54 °FOvercast.15 mph77%30.42 "HgN/A
9:00 PM54 °FOvercast.15 mph77%30.39 "HgN/A
8:30 PM54 °FPassing clouds.12 mph77%30.39 "HgN/A
8:00 PM55 °FPassing clouds.7 mph72%30.39 "HgN/A
7:30 PM55 °FPassing clouds.10 mph72%30.39 "HgN/A
7:00 PM57 °FPartly sunny.12 mph67%30.36 "HgN/A
6:30 PM57 °FPartly sunny.12 mph67%30.36 "HgN/A
6:00 PM61 °FPassing clouds.13 mph59%30.36 "HgN/A
5:30 PM63 °FScattered clouds.9 mph56%30.36 "HgN/A
5:00 PM61 °FPartly sunny.10 mph59%30.36 "HgN/A
4:30 PM63 °FPartly sunny.9 mph56%30.36 "HgN/A
4:00 PM63 °FPartly sunny.9 mph59%30.36 "HgN/A
3:30 PM61 °FPartly sunny.9 mph59%30.39 "HgN/A
3:00 PM61 °FPartly sunny.9 mph59%30.39 "HgN/A
2:30 PM59 °FPartly sunny.12 mph63%30.42 "HgN/A
2:00 PM59 °FPartly sunny.9 mph59%30.42 "HgN/A
1:30 PM59 °FPartly sunny.10 mph63%30.42 "HgN/A
1:00 PM59 °FPartly sunny.12 mph59%30.45 "HgN/A
12:30 PM59 °FBroken clouds.13 mph63%30.45 "HgN/A
12:00 PM59 °FMore clouds than sun.13 mph59%30.45 "HgN/A
11:30 AM57 °FMore clouds than sun.13 mph67%30.48 "HgN/A
11:00 AM57 °FMore clouds than sun.12 mph63%30.48 "HgN/A
10:30 AM55 °FMore clouds than sun.10 mph67%30.48 "HgN/A
10:00 AM54 °FMore clouds than sun.12 mph72%30.48 "HgN/A
9:30 AM54 °FMore clouds than sun.10 mph72%30.48 "HgN/A
9:00 AM52 °FMore clouds than sun.9 mph77%30.48 "HgN/A
8:30 AM52 °FMore clouds than sun.8 mph72%30.48 "HgN/A
8:00 AM50 °FPartly sunny.7 mph76%30.45 "HgN/A
7:30 AM50 °FPartly sunny.7 mph76%30.45 "HgN/A
7:00 AM50 °FBroken clouds.10 mph76%30.45 "HgN/A
6:30 AM50 °FBroken clouds.7 mph76%30.45 "HgN/A
6:00 AM50 °FPartly cloudy.8 mph82%30.45 "HgN/A
5:30 AM50 °FPassing clouds.8 mph82%30.42 "HgN/A
5:00 AM50 °FPassing clouds.9 mph82%30.42 "HgN/A
4:30 AM50 °FPassing clouds.9 mph82%30.42 "HgN/A
4:00 AM50 °FOvercast.9 mph76%30.45 "HgN/A
3:30 AM50 °FMostly cloudy.10 mph76%30.45 "HgN/A
3:00 AM50 °FOvercast.8 mph82%30.45 "HgN/A
2:30 AM50 °FOvercast.7 mph82%30.45 "HgN/A
2:00 AM50 °FOvercast.9 mph82%30.45 "HgN/A
1:30 AM50 °FOvercast.8 mph82%30.45 "HgN/A
1:00 AM50 °FOvercast.8 mph82%30.45 "HgN/A
Weather by CustomWeather, © 2014

See weather overviewHow to use our weather pages